Location: Peterborough
(44.3091°N, 78.3197°W)
Time: 17:26:35
(UTC-04:00)

Transit 2A - Pass Details

Date: 28 March 2023
Orbit: 591 x 964 km, 66.7° (Epoch: 04 June)

Event Time Altitude Azimuth Distance (km) Brightness Sun altitude
Rises 05:42:50 0° 213° (SSW) 3,195 - -14.7°
Reaches altitude 10° 05:45:07 10° 215° (SW) 2,329 - -14.3°
Exits shadow 05:45:49 14° 215° (SW) 2,069 7.8 -14.2°
Maximum altitude 05:50:31 81° 302° (WNW) 859 6.2 -13.4°
Drops below altitude 10° 05:56:33 10° 30° (NNE) 2,588 9.4 -12.3°
Sets 05:59:11 0° 32° (NNE) 3,576 10.3 -11.9°
